DL3APY-3 Weather Reports


Display with metric or nautical units.
time (UTC)temp
F
wind
direction
speed
MPH
gust
MPH
rain 1hr
in
rain 24hr
in
rain mn
in
humidity
%
barometer
mb
20260507100303 45 0 2.0 0.0 0.02 0.00 0.00 10 1012.3
20260507100154 45 90 1.0 0.0 0.02 0.00 0.00 10 1012.3
20260507100045 45 45 2.0 0.0 0.01 0.00 0.00 10 1012.2
20260507095937 45 90 2.0 0.0 0.01 0.00 0.00 10 1012.2
20260507095828 45 45 1.0 0.0 0.01 0.00 0.00 10 1012.2
20260507095719 45 90 1.0 0.0 0.01 0.00 0.00 10 1012.2
20260507095611 45 0 2.0 0.0 0.01 0.00 0.00 10 1012.2
20260507095502 45 0 1.0 0.0 0.01 0.00 0.00 10 1012.1
20260507095353 45 0 3.0 0.0 0.01 0.00 0.00 10 1012.1
20260507095244 45 45 1.0 0.0 0.01 0.00 0.00 10 1012.2
20260507095136 45 0 1.0 0.0 0.01 0.00 0.00 10 1012.1
20260507094918 45 45 2.0 0.0 0.01 0.00 0.00 10 1012.1
20260507094809 45 45 1.0 0.0 0.01 0.00 0.00 10 1012.1
20260507094701 45 45 2.0 0.0 0.01 0.00 0.00 10 1012.0
20260507094552 45 45 1.0 0.0 0.01 0.00 0.00 10 1012.1
20260507094443 45 0 2.0 0.0 0.01 0.00 0.00 10 1012.1
20260507094335 45 45 1.0 0.0 0.01 0.00 0.00 10 1012.0
20260507094226 45 90 1.0 0.0 0.01 0.00 0.00 10 1012.0
20260507094117 45 0 1.0 0.0 0.01 0.00 0.00 10 1012.0
20260507094008 45 90 1.0 0.0 0.01 0.00 0.00 10 1012.0
20260507093900 45 45 1.0 0.0 0.01 0.00 0.00 10 1012.0
20260507093642 45 45 1.0 0.0 0.01 0.00 0.00 10 1011.9
20260507093425 45 0 2.0 0.0 0.01 0.00 0.00 10 1011.9
20260507093316 45 90 3.0 0.0 0.01 0.00 0.00 10 1011.8
20260507093207 45 45 3.0 0.0 0.01 0.00 0.00 10 1011.8
20260507093059 45 45 2.0 0.0 0.01 0.00 0.00 10 1011.8
20260507092950 45 90 2.0 0.0 0.01 0.00 0.00 10 1011.8
20260507092841 45 0 1.0 0.0 0.00 0.00 0.00 10 1011.8
20260507092732 45 135 1.0 0.0 0.00 0.00 0.00 10 1011.8
20260507092624 45 90 1.0 0.0 0.00 0.00 0.00 10 1011.7
20260507092515 45 90 1.0 0.0 0.00 0.00 0.00 10 1011.7
20260507092406 45 45 2.0 0.0 0.00 0.00 0.00 10 1011.7
20260507092258 45 90 1.0 0.0 0.00 0.00 0.00 10 1011.7
20260507092149 45 90 1.0 0.0 0.00 0.00 0.00 10 1011.7
20260507091931 45 45 1.0 0.0 0.00 0.00 0.00 10 1011.7
20260507091823 45 45 1.0 0.0 0.00 0.00 0.00 10 1011.6
20260507091714 45 0 2.0 0.0 0.02 0.00 0.00 10 1011.6
20260507091605 45 45 1.0 0.0 0.02 0.00 0.00 10 1011.6
20260507091456 45 135 2.0 0.0 0.02 0.00 0.00 10 1011.5
20260507091348 45 45 2.0 0.0 0.02 0.00 0.00 10 1011.5
20260507091239 45 45 2.0 0.0 0.02 0.00 0.00 10 1011.4
20260507091130 45 45 2.0 0.0 0.02 0.00 0.00 10 1011.4
20260507091021 45 0 2.0 0.0 0.02 0.00 0.00 10 1011.4
20260507090913 45 135 2.0 0.0 0.02 0.00 0.00 10 1011.3
20260507090655 45 45 2.0 0.0 0.02 0.00 0.00 10 1011.3
20260507090438 45 45 2.0 0.0 0.02 0.00 0.00 10 1011.3
20260507090329 45 45 3.0 0.0 0.02 0.00 0.00 10 1011.2
20260507090220 45 90 1.0 0.0 0.02 0.00 0.00 10 1011.2
20260507090111 45 45 2.0 0.0 0.02 0.00 0.00 10 1011.2
20260507090002 45 0 1.0 0.0 0.02 0.00 0.00 10 1011.2
20260507085854 45 45 1.0 0.0 0.02 0.00 0.00 10 1011.2
20260507085636 45 135 3.0 0.0 0.01 0.00 0.00 10 1011.1
20260507085527 45 45 2.0 0.0 0.01 0.00 0.00 10 1011.1
20260507085419 45 45 1.0 0.0 0.01 0.00 0.00 10 1011.0
20260507085310 45 0 2.0 0.0 0.01 0.00 0.00 10 1010.9
20260507084944 45 90 1.0 0.0 0.01 0.00 0.00 10 1010.9
20260507084617 45 45 2.0 0.0 0.01 0.00 0.00 10 1010.7
20260507084509 46 45 2.0 0.0 0.01 0.00 0.00 10 1010.8
20260507084400 46 135 1.0 0.0 0.01 0.00 0.00 10 1010.7
20260507084142 45 90 2.0 0.0 0.01 0.00 0.00 10 1010.7
20260507084034 45 45 2.0 0.0 0.01 0.00 0.00 10 1010.7
20260507083925 45 45 2.0 0.0 0.01 0.00 0.00 10 1010.8
20260507083816 45 45 3.0 0.0 0.01 0.00 0.00 10 1010.7
20260507083450 46 0 4.0 0.0 0.01 0.00 0.00 10 1010.6
20260507083341 46 45 1.0 0.0 0.01 0.00 0.00 10 1010.5
20260507083232 46 45 1.0 0.0 0.01 0.00 0.00 10 1010.4
20260507083124 46 45 2.0 0.0 0.01 0.00 0.00 10 1010.4
20260507083015 46 45 1.0 0.0 0.01 0.00 0.00 10 1010.4
20260507082757 46 90 2.0 0.0 0.01 0.00 0.00 10 1010.3
20260507082648 46 45 1.0 0.0 0.00 0.00 0.00 10 1010.3
20260507082540 46 45 1.0 0.0 0.00 0.00 0.00 10 1010.4
20260507082322 46 90 1.0 0.0 0.00 0.00 0.00 10 1010.3
20260507082213 46 45 1.0 0.0 0.00 0.00 0.00 10 1010.3
20260507081956 46 90 2.0 0.0 0.00 0.00 0.00 10 1010.3
20260507081847 46 45 1.0 0.0 0.00 0.00 0.00 10 1010.3
20260507081739 46 0 2.0 0.0 0.00 0.00 0.00 10 1010.3
20260507081630 45 0 3.0 0.0 0.00 0.00 0.00 10 1010.3
20260507081412 46 45 1.0 0.0 0.00 0.00 0.00 10 1010.3
20260507081303 46 0 3.0 0.0 0.00 0.00 0.00 10 1010.3
20260507081154 46 45 2.0 0.0 0.00 0.00 0.00 10 1010.3
20260507081045 46 45 1.0 0.0 0.00 0.00 0.00 10 1010.3
20260507080936 46 45 1.0 0.0 0.00 0.00 0.00 10 1010.3
20260507080827 46 45 3.0 0.0 0.00 0.00 0.00 10 1010.1
20260507080719 46 45 1.0 0.0 0.02 0.00 0.00 10 1010.0
20260507080243 46 45 1.0 0.0 0.02 0.00 0.00 10 1009.9
20260507080135 46 45 2.0 0.0 0.02 0.00 0.00 10 1009.9
20260507080026 46 0 2.0 0.0 0.02 0.00 0.00 10 1009.9
20260507075917 46 90 1.0 0.0 0.02 0.00 0.00 10 1009.9
20260507075809 46 45 1.0 0.0 0.02 0.00 0.00 10 1009.8
20260507075700 47 45 1.0 0.0 0.01 0.00 0.00 10 1009.8
20260507075551 46 90 1.0 0.0 0.01 0.00 0.00 10 1009.9
20260507075442 47 45 1.0 0.0 0.01 0.00 0.00 10 1009.8
20260507075333 47 270 2.0 0.0 0.01 0.00 0.00 10 1009.7
20260507075224 47 45 1.0 0.0 0.01 0.00 0.00 10 1009.7
20260507075007 47 0 1.0 0.0 0.01 0.00 0.00 10 1009.6
20260507074314 47 90 2.0 0.0 0.01 0.00 0.00 10 1009.4
20260507074057 47 0 1.0 0.0 0.01 0.00 0.00 10 1009.3
20260507073730 47 45 1.0 0.0 0.01 0.00 0.00 10 1009.2
20260507073255 47 45 1.0 0.0 0.01 0.00 0.00 10 1009.2
20260507072820 47 45 1.0 0.0 0.01 0.00 0.00 10 1009.3
20260507072711 47 135 1.0 0.0 0.01 0.00 0.00 10 1009.4
20260507072602 47 90 1.0 0.0 0.01 0.00 0.00 10 1009.4
20260507072454 47 90 1.0 0.0 0.00 0.00 0.00 10 1009.3
20260507072236 47 45 1.0 0.0 0.00 0.00 0.00 10 1009.3
20260507072127 47 90 2.0 0.0 0.00 0.00 0.00 10 1009.2
20260507071910 47 90 1.0 0.0 0.00 0.00 0.00 10 1009.1
20260507071652 47 45 2.0 0.0 0.00 0.00 0.00 10 1009.0
20260507071434 47 45 1.0 0.0 0.00 0.00 0.00 10 1009.0
20260507071326 47 180 1.0 0.0 0.00 0.00 0.00 10 1009.0
20260507071217 47 90 2.0 0.0 0.00 0.00 0.00 10 1009.0
20260507071108 47 0 2.0 0.0 0.00 0.00 0.00 10 1009.0
20260507071000 47 90 1.0 0.0 0.00 0.00 0.00 10 1009.0
20260507070851 47 90 1.0 0.0 0.00 0.00 0.00 10 1009.1
20260507070742 47 90 2.0 0.0 0.00 0.00 0.00 10 1009.1
20260507070524 47 45 1.0 0.0 0.00 0.00 0.00 10 1009.1
20260507070415 47 90 1.0 0.0 0.00 0.00 0.00 10 1009.1
20260507070307 47 90 1.0 0.0 0.00 0.00 0.00 10 1009.0
20260507070049 47 45 1.0 0.0 0.00 0.00 0.00 10 1008.9
20260507065940 47 135 1.0 0.0 0.00 0.00 0.00 10 1008.9
20260507065832 47 45 1.0 0.0 0.00 0.00 0.00 10 1008.8
20260507065723 47 45 1.0 0.0 0.03 0.00 0.00 10 1008.8
20260507065614 47 135 1.0 0.0 0.03 0.00 0.00 10 1008.7
20260507065505 47 45 1.0 0.0 0.03 0.00 0.00 10 1008.7
20260507065356 47 90 2.0 0.0 0.02 0.00 0.00 10 1008.6
20260507065248 47 90 1.0 0.0 0.02 0.00 0.00 10 1008.6
20260507065030 47 45 2.0 0.0 0.02 0.00 0.00 10 1008.4
20260507064921 47 45 1.0 0.0 0.02 0.00 0.00 10 1008.4
20260507064812 47 45 1.0 0.0 0.02 0.00 0.00 10 1008.3
20260507064704 47 90 1.0 0.0 0.02 0.00 0.00 10 1008.3
20260507064555 47 90 1.0 0.0 0.02 0.00 0.00 10 1008.3
20260507064337 47 0 2.0 0.0 0.02 0.00 0.00 10 1008.5
20260507064228 47 0 2.0 0.0 0.02 0.00 0.00 10 1008.3
20260507064120 47 90 1.0 0.0 0.02 0.00 0.00 10 1008.3
20260507064011 47 90 2.0 0.0 0.02 0.00 0.00 10 1008.2
20260507063902 47 45 1.0 0.0 0.02 0.00 0.00 10 1008.1
20260507063753 47 45 1.0 0.0 0.02 0.00 0.00 10 1008.1
20260507063536 47 45 1.0 0.0 0.02 0.00 0.00 10 1008.1
20260507063318 47 0 1.0 0.0 0.02 0.00 0.00 10 1007.9
20260507063210 47 0 1.0 0.0 0.02 0.00 0.00 10 1007.9
20260507063101 47 0 1.0 0.0 0.02 0.00 0.00 10 1007.8
20260507062952 47 90 1.0 0.0 0.02 0.00 0.00 10 1007.9
20260507062843 47 0 2.0 0.0 0.01 0.00 0.00 10 1007.8
20260507062734 47 90 1.0 0.0 0.01 0.00 0.00 10 1007.7
20260507062625 47 45 2.0 0.0 0.01 0.00 0.00 10 1007.7
20260507062408 47 45 4.0 0.0 0.01 0.00 0.00 10 1007.9
20260507062259 47 45 1.0 0.0 0.01 0.00 0.00 10 1007.9
20260507062042 47 0 1.0 0.0 0.01 0.00 0.00 10 1007.5
20260507061933 47 45 1.0 0.0 0.01 0.00 0.00 10 1007.4
20260507061824 47 45 1.0 0.0 0.01 0.00 0.00 10 1007.3
20260507061715 47 135 3.0 0.0 0.01 0.00 0.00 10 1007.3
20260507061607 47 45 2.0 0.0 0.01 0.00 0.00 10 1007.2
20260507061458 47 135 2.0 0.0 0.01 0.00 0.00 10 1007.1
20260507061240 47 45 1.0 0.0 0.01 0.00 0.00 10 1006.9
20260507061131 48 0 1.0 0.0 0.01 0.00 0.00 10 1006.8
20260507060805 47 45 2.0 0.0 0.01 0.00 0.00 10 1006.8
20260507060547 47 45 2.0 0.0 0.01 0.00 0.00 10 1007.5
20260507060329 47 45 1.0 0.0 0.01 0.00 0.00 10 1007.4
20260507060221 47 0 2.0 0.0 0.01 0.00 0.00 10 1007.3
20260507060112 48 45 2.0 0.0 0.01 0.00 0.00 10 1007.4
20260507060003 48 45 1.0 0.0 0.01 0.00 0.00 10 1007.3
20260507055854 48 45 1.0 0.0 0.00 0.00 0.00 10 1007.3
20260507055745 48 45 3.0 0.0 0.00 0.00 0.00 10 1007.2
20260507055637 48 45 2.0 0.0 0.00 0.00 0.00 10 1007.3
20260507055419 48 45 2.0 0.0 0.00 0.00 0.00 10 1007.2
20260507055201 48 45 2.0 0.0 0.00 0.00 0.00 10 1007.1
20260507055053 48 45 3.0 0.0 0.00 0.00 0.00 10 1007.1
20260507054944 48 90 2.0 0.0 0.00 0.00 0.00 10 1007.1
20260507054835 48 45 2.0 0.0 0.00 0.00 0.00 10 1007.1
20260507054726 48 45 1.0 0.0 0.01 0.00 0.00 10 1007.0
20260507054618 48 0 1.0 0.0 0.01 0.00 0.00 10 1007.0
20260507054251 48 45 1.0 0.0 0.01 0.00 0.00 10 1006.9
20260507054143 48 45 2.0 0.0 0.01 0.00 0.00 10 1006.9
20260507054034 48 45 1.0 0.0 0.01 0.00 0.00 10 1006.8
20260507053925 48 0 2.0 0.0 0.01 0.00 0.00 10 1006.8
20260507053816 48 0 4.0 0.0 0.01 0.00 0.00 10 1006.7
20260507053707 48 45 2.0 0.0 0.01 0.00 0.00 10 1006.7
20260507053559 48 45 1.0 0.0 0.01 0.00 0.00 10 1006.7
20260507053341 49 45 1.0 0.0 0.01 0.00 0.00 10 1006.6
20260507053015 49 0 1.0 0.0 0.01 0.00 0.00 10 1006.5
20260507052906 48 45 1.0 0.0 0.01 0.00 0.00 10 1006.6
20260507052757 49 45 1.0 0.0 0.01 0.00 0.00 10 1006.6
20260507052322 49 45 0.0 0.0 0.01 0.00 0.00 10 1006.9
20260507052213 49 45 1.0 0.0 0.01 0.00 0.00 10 1006.8
20260507052105 49 90 1.0 0.0 0.01 0.00 0.00 10 1006.9
20260507051956 48 45 1.0 0.0 0.01 0.00 0.00 10 1006.8
20260507051847 48 0 1.0 0.0 0.01 0.00 0.00 10 1006.8
20260507051630 48 45 1.0 0.0 0.01 0.00 0.00 10 1006.6
20260507051521 48 45 2.0 0.0 0.00 0.00 0.00 10 1006.6
20260507051412 49 45 1.0 0.0 0.00 0.00 0.00 10 1006.6
20260507051303 49 90 1.0 0.0 0.00 0.00 0.00 10 1006.6
20260507050828 49 0 2.0 0.0 0.00 0.00 0.00 10 1006.5
20260507050611 49 45 1.0 0.0 0.00 0.00 0.00 10 1006.5
20260507050502 49 45 1.0 0.0 0.00 0.00 0.00 10 1006.5
20260507050244 49 0 1.0 0.0 0.00 0.00 0.00 10 1006.5
20260507050136 49 90 1.0 0.0 0.00 0.00 0.00 10 1006.6
20260507050027 49 315 1.0 0.0 0.00 0.00 0.00 10 1006.5
20260507045918 49 45 1.0 0.0 0.00 0.00 0.00 10 1006.5
20260507045809 49 45 2.0 0.0 0.00 0.00 0.00 10 1006.5
20260507045701 49 45 1.0 0.0 0.00 0.00 0.00 10 1006.5
20260507045443 49 0 1.0 0.0 0.00 0.00 0.00 10 1006.5
20260507045117 49 0 1.0 0.0 0.00 0.00 0.00 10 1006.5
20260507045008 49 45 1.0 0.0 0.00 0.00 0.00 10 1006.4
20260507044750 49 45 1.0 0.0 0.00 0.00 0.00 10 1006.5
20260507044642 49 45 1.0 0.0 0.00 0.00 0.00 10 1006.5
20260507044533 49 45 2.0 0.0 0.00 0.00 0.00 10 1006.5
20260507044315 49 0 1.0 0.0 0.00 0.00 0.00 10 1006.5
20260507044206 49 45 1.0 0.0 0.00 0.00 0.00 10 1006.5
20260507044057 49 45 2.0 0.0 0.00 0.00 0.00 10 1006.5
20260507043949 49 45 1.0 0.0 0.00 0.00 0.00 10 1006.5
20260507043840 49 45 2.0 0.0 0.00 0.00 0.00 10 1006.4
20260507043731 49 45 1.0 0.0 0.00 0.00 0.00 10 1006.4
20260507043622 49 45 1.0 0.0 0.00 0.00 0.00 10 1006.4
20260507043513 49 0 1.0 0.0 0.00 0.00 0.00 10 1006.4
20260507043405 49 45 1.0 0.0 0.00 0.00 0.00 10 1006.4
20260507043256 49 45 2.0 0.0 0.00 0.00 0.00 10 1006.4
20260507043147 49 45 1.0 0.0 0.00 0.00 0.00 10 1006.4
20260507043038 49 90 2.0 0.0 0.00 0.00 0.00 10 1006.4
20260507042929 49 90 1.0 0.0 0.00 0.00 0.00 10 1006.3
20260507042821 49 45 2.0 0.0 0.00 0.00 0.00 10 1006.3
20260507042712 49 45 2.0 0.0 0.00 0.00 0.00 10 1006.3
20260507042604 49 45 2.0 0.0 0.00 0.00 0.00 10 1006.2
20260507042455 49 45 1.0 0.0 0.00 0.00 0.00 10 1006.1
20260507042346 49 45 2.0 0.0 0.00 0.00 0.00 10 1006.1
20260507042129 49 0 2.0 0.0 0.00 0.00 0.00 10 1006.1
20260507042020 49 45 1.0 0.0 0.00 0.00 0.00 10 1006.0
20260507041803 49 0 1.0 0.0 0.00 0.00 0.00 10 1005.9
20260507041655 49 45 1.0 0.0 0.00 0.00 0.00 10 1005.8
20260507041546 49 45 2.0 0.0 0.00 0.00 0.00 10 1005.8
20260507041329 49 45 1.0 0.0 0.00 0.00 0.00 10 1005.7
20260507041111 49 45 1.0 0.0 0.00 0.00 0.00 10 1005.7
20260507041003 49 45 1.0 0.0 0.00 0.00 0.00 10 1005.7
20260507040054 49 90 1.0 0.0 0.00 0.00 0.00 10 1005.5
20260507035945 49 90 1.0 0.0 0.00 0.00 0.00 10 1005.5
20260507035728 49 135 1.0 0.0 0.00 0.00 0.00 10 1005.4
20260507035620 49 180 0.0 0.0 0.00 0.00 0.00 10 1005.3
20260507033544 49 225 1.0 0.0 0.00 0.00 0.00 10 1005.0
20260507033436 49 180 1.0 0.0 0.00 0.00 0.00 10 1004.9
20260507033327 49 225 1.0 0.0 0.00 0.00 0.00 10 1004.9
20260507033110 49 180 1.0 0.0 0.00 0.00 0.00 10 1004.9
20260507033001 49 225 1.0 0.0 0.00 0.00 0.00 10 1004.9
20260507032744 49 225 1.0 0.0 0.00 0.00 0.00 10 1004.9
20260507032635 49 270 1.0 0.0 0.00 0.00 0.00 10 1004.9
20260507032418 49 270 1.0 0.0 0.00 0.00 0.00 10 1004.9
20260507032310 49 225 1.0 0.0 0.00 0.00 0.00 10 1004.8
20260507032201 49 270 1.0 0.0 0.00 0.00 0.00 10 1004.9
20260507031944 49 1.0 0.0 0.00 0.00 0.00 10 1004.8
20260507031835 49 270 1.0 0.0 0.00 0.00 0.00 10 1004.8
20260507031726 49 225 2.0 0.0 0.00 0.00 0.00 10 1004.9
20260507031509 49 225 2.0 0.0 0.00 0.00 0.00 10 1004.9
20260507031400 49 225 2.0 0.0 0.00 0.00 0.00 10 1004.8
20260507031143 49 225 1.0 0.0 0.00 0.00 0.00 10 1004.7
20260507031034 49 225 2.0 0.0 0.00 0.00 0.00 10 1004.7
20260507030926 49 2.0 0.0 0.00 0.00 0.00 10 1004.7
20260507030817 49 225 1.0 0.0 0.00 0.00 0.00 10 1004.7
20260507030709 49 270 2.0 0.0 0.00 0.00 0.00 10 1004.7
20260507030600 49 270 1.0 0.0 0.00 0.00 0.00 10 1004.7
20260507030451 49 315 1.0 0.0 0.00 0.00 0.00 10 1004.6
20260507030343 49 225 1.0 0.0 0.00 0.00 0.00 10 1004.5
20260507030125 49 225 1.0 0.0 0.00 0.00 0.00 10 1004.5
20260507025908 49 45 1.0 0.0 0.00 0.00 0.00 10 1004.5
20260507025800 49 225 1.0 0.0 0.00 0.00 0.00 10 1004.5
20260507025651 49 270 1.0 0.0 0.00 0.00 0.00 10 1004.5
20260507025542 49 225 1.0 0.0 0.00 0.00 0.00 10 1004.5
20260507025434 49 45 1.0 0.0 0.00 0.00 0.00 10 1004.6
20260507025325 49 225 1.0 0.0 0.00 0.00 0.00 10 1004.6
20260507024633 49 270 1.0 0.0 0.00 0.00 0.00 10 1004.6
20260507024525 49 225 3.0 0.0 0.00 0.00 0.00 10 1004.6
20260507024416 49 270 2.0 0.0 0.00 0.00 0.00 10 1004.6
20260507024307 49 225 1.0 0.0 0.00 0.00 0.00 10 1004.6
20260507024159 49 270 2.0 0.0 0.00 0.00 0.00 10 1004.6
20260507024050 49 270 1.0 0.0 0.00 0.00 0.00 10 1004.6
20260507023942 49 270 1.0 0.0 0.00 0.00 0.00 10 1004.5
20260507023833 49 315 2.0 0.0 0.00 0.00 0.00 10 1004.6
20260507023724 49 225 2.0 0.0 0.00 0.00 0.00 10 1004.5
20260507023616 49 270 1.0 0.0 0.00 0.00 0.00 10 1004.6
20260507023358 50 270 2.0 0.0 0.00 0.00 0.00 10 1004.5
20260507023250 50 270 1.0 0.0 0.00 0.00 0.00 10 1004.6
20260507023141 49 225 2.0 0.0 0.00 0.00 0.00 10 1004.5
20260507023033 49 270 2.0 0.0 0.00 0.00 0.00 10 1004.5
20260507022924 49 225 2.0 0.0 0.00 0.00 0.00 10 1004.5
20260507022815 49 270 1.0 0.0 0.00 0.00 0.00 10 1004.4
20260507022707 50 270 2.0 0.0 0.00 0.00 0.00 10 1004.5
20260507022558 50 270 1.0 0.0 0.00 0.00 0.00 10 1004.4
20260507022449 50 270 1.0 0.0 0.00 0.00 0.00 10 1004.4
20260507022341 50 225 2.0 0.0 0.00 0.00 0.00 10 1004.3
20260507022124 50 270 2.0 0.0 0.00 0.00 0.00 10 1004.1
20260507022015 50 270 2.0 0.0 0.00 0.00 0.00 10 1004.0
20260507021906 50 270 2.0 0.0 0.00 0.00 0.00 10 1004.0
20260507021758 50 270 1.0 0.0 0.03 0.00 0.00 10 1003.9
20260507021649 50 225 2.0 0.0 0.03 0.00 0.00 10 1003.8
20260507021541 50 270 1.0 0.0 0.03 0.00 0.00 10 1004.0
20260507021432 50 270 2.0 0.0 0.03 0.00 0.00 10 1004.1
20260507021323 50 315 2.0 0.0 0.02 0.00 0.00 10 1004.2
20260507021215 50 225 2.0 0.0 0.02 0.00 0.00 10 1004.4
20260507021106 50 225 1.0 0.0 0.02 0.00 0.00 10 1004.5
20260507020957 50 225 2.0 0.0 0.02 0.00 0.00 10 1004.6
20260507020849 50 225 2.0 0.0 0.02 0.00 0.00 10 1004.6
20260507020740 50 180 3.0 0.0 0.02 0.00 0.00 10 1004.6
20260507020631 50 225 2.0 0.0 0.02 0.00 0.00 10 1004.6
20260507020523 50 270 1.0 0.0 0.02 0.00 0.00 10 1004.5
20260507020414 50 315 2.0 0.0 0.02 0.00 0.00 10 1004.6
20260507020305 50 225 1.0 0.0 0.02 0.00 0.00 10 1004.5
20260507020157 50 270 3.0 0.0 0.02 0.00 0.00 10 1004.5
20260507015614 50 180 1.0 0.0 0.02 0.00 0.00 10 1004.3
20260507015505 50 270 1.0 0.0 0.02 0.00 0.00 10 1004.2
20260507015356 51 270 1.0 0.0 0.02 0.00 0.00 10 1004.2
20260507014922 51 270 1.0 0.0 0.02 0.00 0.00 10 1004.4
20260507014813 51 180 2.0 0.0 0.02 0.00 0.00 10 1004.4
20260507014339 51 45 1.0 0.0 0.01 0.00 0.00 10 1004.3
20260507013647 51 180 1.0 0.0 0.00 0.00 0.00 10 1004.0
20260507013538 51 180 1.0 0.0 0.00 0.00 0.00 10 1004.0
20260507013430 52 180 1.0 0.0 0.00 0.00 0.00 10 1003.9
20260507013321 52 180 1.0 0.0 0.00 0.00 0.00 10 1003.8
20260507013213 52 180 1.0 0.0 0.00 0.00 0.00 10 1003.8
20260507013104 52 135 1.0 0.0 0.00 0.00 0.00 10 1003.7
20260507012847 52 135 1.0 0.0 0.00 0.00 0.00 10 1003.6
20260507012306 52 90 1.0 0.0 0.00 0.00 0.00 10 1003.8
20260507012155 52 90 1.0 0.0 0.00 0.00 0.00 10 1003.9
20260507011938 52 45 2.0 0.0 0.00 0.00 0.00 10 1003.8
20260507011829 52 90 1.0 0.0 0.00 0.00 0.00 10 1003.8
20260507011720 52 90 1.0 0.0 0.00 0.00 0.00 10 1003.8
20260507011612 52 90 1.0 0.0 0.00 0.00 0.00 10 1003.8
20260507011503 52 45 1.0 0.0 0.00 0.00 0.00 10 1003.8
20260507011355 52 90 2.0 0.0 0.00 0.00 0.00 10 1003.8
20260507011246 52 90 1.0 0.0 0.00 0.00 0.00 10 1003.7
20260507011137 52 90 2.0 0.0 0.00 0.00 0.00 10 1003.7
20260507011029 52 90 1.0 0.0 0.00 0.00 0.00 10 1003.7
20260507010920 52 90 1.0 0.0 0.00 0.00 0.00 10 1003.7
20260507010812 52 135 1.0 0.0 0.01 0.00 0.00 10 1003.7
20260507010703 52 90 1.0 0.0 0.00 0.00 0.00 10 1003.7
20260507010554 52 90 1.0 0.0 0.00 0.00 0.00 10 1003.6
20260507010338 52 180 1.0 0.0 0.00 0.00 0.00 10 1003.6
20260507010228 52 45 1.0 0.0 0.00 0.00 0.00 10 1003.6
20260507010120 52 315 1.0 0.0 0.00 0.00 0.00 10 1003.6
20260507010011 52 90 3.0 0.0 0.00 0.00 0.00 10 1003.5
20260507005754 52 45 2.0 0.0 0.00 0.00 0.00 10 1003.6
20260507005645 52 45 2.0 0.0 0.00 0.00 0.00 10 1003.4
20260507005537 52 90 2.0 0.0 0.00 0.00 0.00 10 1003.4
20260507005428 52 90 1.0 0.0 0.00 0.00 0.00 10 1003.5
20260507005320 52 90 2.0 0.0 0.00 0.00 0.00 10 1003.4
20260507005211 52 90 1.0 0.0 0.00 0.00 0.00 10 1003.5
20260507005102 52 90 1.0 0.0 0.00 0.00 0.00 10 1003.4
20260507004954 52 45 1.0 0.0 0.00 0.00 0.00 10 1003.3
20260507004845 52 90 2.0 0.0 0.00 0.00 0.00 10 1003.3
20260507004736 52 90 3.0 0.0 0.00 0.00 0.00 10 1003.3
20260507004628 52 90 1.0 0.0 0.00 0.00 0.00 10 1003.2
20260507004411 52 45 1.0 0.0 0.00 0.00 0.00 10 1003.2
20260507004302 52 135 2.0 0.0 0.00 0.00 0.00 10 1003.1
20260507004153 52 90 1.0 0.0 0.00 0.00 0.00 10 1003.1
20260507004044 52 90 1.0 0.0 0.00 0.00 0.00 10 1003.1
20260507003936 52 45 1.0 0.0 0.00 0.00 0.00 10 1003.1
20260507003827 52 90 2.0 0.0 0.00 0.00 0.00 10 1003.1
20260507003719 52 45 3.0 0.0 0.00 0.00 0.00 10 1003.0
20260507003610 52 90 1.0 0.0 0.00 0.00 0.00 10 1002.9
20260507003353 52 45 1.0 0.0 0.00 0.00 0.00 10 1002.8
20260507003244 52 90 3.0 0.0 0.00 0.00 0.00 10 1002.8
20260507003135 52 90 2.0 0.0 0.00 0.00 0.00 10 1002.7
20260507003027 52 90 1.0 0.0 0.00 0.00 0.00 10 1002.6
20260507002918 52 90 2.0 0.0 0.00 0.00 0.00 10 1002.6
20260507002809 52 90 2.0 0.0 0.00 0.00 0.00 10 1002.6
20260507002701 52 45 2.0 0.0 0.00 0.00 0.00 10 1002.4
20260507002552 52 90 2.0 0.0 0.00 0.00 0.00 10 1002.4
20260507002443 52 45 1.0 0.0 0.00 0.00 0.00 10 1002.3
20260507002226 52 90 1.0 0.0 0.00 0.00 0.00 10 1002.3
20260507002117 52 90 1.0 0.0 0.00 0.00 0.00 10 1002.4
20260507002009 52 90 1.0 0.0 0.00 0.00 0.00 10 1002.6
20260507001900 52 90 2.0 0.0 0.00 0.00 0.00 10 1002.8
20260507001643 52 0 1.0 0.0 0.00 0.00 0.00 10 1003.0
20260507001534 52 45 2.0 0.0 0.00 0.00 0.00 10 1003.0
20260507001426 52 90 1.0 0.0 0.00 0.00 0.00 10 1003.1
20260507001317 52 90 1.0 0.0 0.00 0.00 0.00 10 1003.1
20260507001209 52 135 2.0 0.0 0.00 0.00 0.00 10 1003.1
20260507001100 52 90 1.0 0.0 0.00 0.00 0.00 10 1003.1
20260507000843 52 135 1.0 0.0 0.00 0.00 0.00 10 1003.1
20260507000734 52 90 1.0 0.0 0.00 0.00 0.00 10 1003.1
20260507000517 52 45 1.0 0.0 0.00 0.00 0.00 10 1003.1
20260507000408 52 90 1.0 0.0 0.00 0.00 0.00 10 1003.1
20260507000259 52 135 1.0 0.0 0.00 0.00 0.00 10 1003.0
20260507000151 52 90 1.0 0.0 0.00 0.00 0.00 10 1003.1
20260507000042 52 90 1.0 0.0 0.00 0.00 0.00 10 1003.1
20260506235934 52 90 2.0 0.0 0.00 0.00 0.00 10 1003.1
20260506235825 52 90 1.0 0.0 0.00 0.00 0.00 10 1003.1
20260506235716 52 90 1.0 0.0 0.00 0.00 0.00 10 1003.1
20260506235459 52 90 1.0 0.0 0.00 0.00 0.00 10 1002.8
20260506235351 52 135 1.0 0.0 0.00 0.00 0.00 10 1002.6
20260506235242 52 90 1.0 0.0 0.00 0.00 0.00 10 1002.6
20260506235133 52 90 1.0 0.0 0.00 0.00 0.00 10 1002.7
20260506235025 52 90 1.0 0.0 0.00 0.00 0.00 10 1002.6
20260506234916 52 90 2.0 0.0 0.00 0.00 0.00 10 1002.6
20260506234550 52 90 1.0 0.0 0.00 0.00 0.00 10 1002.6
20260506234442 52 135 2.0 0.0 0.00 0.00 0.00 10 1002.6
20260506234333 52 90 2.0 0.0 0.00 0.00 0.00 10 1002.5
20260506234224 52 90 1.0 0.0 0.00 0.00 0.00 10 1002.5
20260506233750 52 180 1.0 0.0 0.00 0.00 0.00 10 1002.5
20260506233641 52 90 2.0 0.0 0.00 0.00 0.00 10 1002.5
20260506233424 52 315 1.0 0.0 0.00 0.00 0.00 10 1002.5
20260506233316 52 135 1.0 0.0 0.00 0.00 0.00 10 1002.4
20260506233207 52 90 1.0 0.0 0.00 0.00 0.00 10 1002.5
20260506233058 52 45 1.0 0.0 0.00 0.00 0.00 10 1002.5
20260506232950 52 45 1.0 0.0 0.00 0.00 0.00 10 1002.4
20260506232841 52 90 2.0 0.0 0.00 0.00 0.00 10 1002.5
20260506232733 52 90 1.0 0.0 0.00 0.00 0.00 10 1002.5
20260506232515 52 90 1.0 0.0 0.00 0.00 0.00 10 1002.6
20260506232407 52 90 1.0 0.0 0.00 0.00 0.00 10 1002.6
20260506232258 52 45 2.0 0.0 0.00 0.00 0.00 10 1002.5
20260506232149 52 90 1.0 0.0 0.00 0.00 0.00 10 1002.6
20260506232041 52 45 1.0 0.0 0.00 0.00 0.00 10 1002.6
20260506231932 52 45 2.0 0.0 0.00 0.00 0.00 10 1002.6
20260506231823 52 45 1.0 0.0 0.00 0.00 0.00 10 1002.6
20260506231715 52 45 1.0 0.0 0.00 0.00 0.00 10 1002.7
20260506231458 52 90 1.0 0.0 0.00 0.00 0.00 10 1002.6
20260506231349 52 135 3.0 0.0 0.00 0.00 0.00 10 1002.7
20260506231240 52 90 3.0 0.0 0.00 0.00 0.00 10 1002.7
20260506231132 52 90 2.0 0.0 0.00 0.00 0.00 10 1002.7
20260506231023 52 90 2.0 0.0 0.00 0.00 0.00 10 1002.7
20260506230806 53 90 1.0 0.0 0.00 0.00 0.00 10 1002.7
20260506230440 53 45 1.0 0.0 0.00 0.00 0.00 10 1002.7
20260506230331 53 45 1.0 0.0 0.00 0.00 0.00 10 1002.7
20260506225857 53 45 1.0 0.0 0.00 0.00 0.00 10 1002.6
20260506225748 53 90 2.0 0.0 0.00 0.00 0.00 10 1002.5
20260506225639 53 90 2.0 0.0 0.00 0.00 0.00 10 1002.5
20260506225422 53 90 1.0 0.0 0.00 0.00 0.00 10 1002.4
20260506225314 53 90 1.0 0.0 0.00 0.00 0.00 10 1002.5
20260506225205 53 45 1.0 0.0 0.00 0.00 0.00 10 1002.5
20260506225056 53 90 3.0 0.0 0.00 0.00 0.00 10 1002.5
20260506224948 53 90 2.0 0.0 0.00 0.00 0.00 10 1002.4
20260506224839 53 90 1.0 0.0 0.00 0.00 0.00 10 1002.4
20260506224730 53 90 1.0 0.0 0.00 0.00 0.00 10 1002.3
20260506224622 53 90 1.0 0.0 0.00 0.00 0.00 10 1002.3
20260506224513 53 90 2.0 0.0 0.00 0.00 0.00 10 1002.3
20260506224404 53 45 1.0 0.0 0.00 0.00 0.00 10 1002.2
20260506224256 53 0 1.0 0.0 0.00 0.00 0.00 10 1002.2
20260506224038 53 45 1.0 0.0 0.00 0.00 0.00 10 1002.1
20260506223821 53 90 1.0 0.0 0.00 0.00 0.00 10 1001.9
20260506223604 53 135 1.0 0.0 0.00 0.00 0.00 10 1001.7
20260506223456 53 90 1.0 0.0 0.00 0.00 0.00 10 1001.5
20260506223347 53 90 1.0 0.0 0.00 0.00 0.00 10 1001.4
20260506222804 53 90 1.0 0.0 0.00 0.00 0.00 10 1001.0
20260506222655 53 90 1.0 0.0 0.00 0.00 0.00 10 1001.0
20260506222329 53 90 1.0 0.0 0.00 0.00 0.00 10 1001.0
20260506222004 53 90 1.0 0.0 0.00 0.00 0.00 10 1001.0
20260506221746 53 90 1.0 0.0 0.00 0.00 0.00 10 1001.4
20260506221638 53 135 2.0 0.0 0.00 0.00 0.00 10 1001.4
20260506221529 53 90 1.0 0.0 0.00 0.00 0.00 10 1001.5
20260506221312 53 90 1.0 0.0 0.00 0.00 0.00 10 1001.5
20260506220838 53 135 1.0 0.0 0.00 0.00 0.00 10 1001.6
20260506220729 53 90 1.0 0.0 0.00 0.00 0.00 10 1001.7
20260506220146 53 90 0.0 0.0 0.00 0.00 0.00 10 1001.5
20260506220038 53 90 0.0 0.0 0.00 0.00 0.00 10 1001.6
20260506215820 53 90 0.0 0.0 0.00 0.00 0.00 10 1001.5
20260506215346 53 90 1.0 0.0 0.00 0.00 0.00 10 1001.4
20260506215128 53 45 1.0 0.0 0.00 0.00 0.00 10 1001.4
20260506214545 53 90 0.0 0.0 0.00 0.00 0.00 10 1001.4
20260506214437 53 90 0.0 0.0 0.00 0.00 0.00 10 1001.3
20260506214328 53 180 0.0 0.0 0.00 0.00 0.00 10 1001.3
20260506214219 53 180 0.0 0.0 0.00 0.00 0.00 10 1001.3
20260506214111 53 90 0.0 0.0 0.00 0.00 0.00 10 1001.2
20260506214002 53 180 0.0 0.0 0.00 0.00 0.00 10 1001.2
20260506213854 53 180 0.0 0.0 0.01 0.00 0.00 10 1001.2
20260506213745 53 135 0.0 0.0 0.01 0.00 0.00 10 1001.2
20260506213311 53 90 0.0 0.0 0.01 0.00 0.00 10 1001.1
20260506212836 53 90 0.0 0.0 0.01 0.00 0.00 10 1001.0
20260506212728 53 180 0.0 0.0 0.01 0.00 0.00 10 1001.0
20260506212511 53 45 0.0 0.0 0.01 0.00 0.00 10 1000.9
20260506212402 53 90 0.0 0.0 0.01 0.00 0.00 10 1000.9
20260506212253 53 135 0.0 0.0 0.01 0.00 0.00 10 1000.8
20260506210801 54 90 1.0 0.0 0.00 0.00 0.00 10 1000.7
20260506210435 54 135 1.0 0.0 0.00 0.00 0.00 10 1000.7
20260506205744 54 90 1.0 0.0 0.00 0.00 0.00 10 1000.5
20260506205418 54 90 1.0 0.0 0.00 0.00 0.00 10 1000.3
20260506205309 54 135 0.0 0.0 0.00 0.00 0.00 10 1000.3
20260506204944 54 45 1.0 0.0 0.00 0.00 0.00 10 1000.2
20260506204835 53 90 1.0 0.0 0.00 0.00 0.00 10 1000.2
20260506204726 53 90 2.0 0.0 0.00 0.00 0.00 10 1000.2
20260506204618 54 90 1.0 0.0 0.00 0.00 0.00 10 1000.2
20260506204401 54 90 1.0 0.0 0.00 0.00 0.00 10 1000.2
20260506204252 53 90 2.0 0.0 0.00 0.00 0.00 10 1000.1
20260506204143 53 90 1.0 0.0 0.00 0.00 0.00 10 1000.1
20260506204034 53 90 2.0 0.0 0.00 0.00 0.00 10 1000.1
20260506203709 54 90 1.0 0.0 0.00 0.00 0.00 10 1000.0
20260506203017 53 135 0.0 0.0 0.00 0.00 0.00 10 999.8
20260506202543 53 135 1.0 0.0 0.00 0.00 0.00 10 999.7
20260506202217 53 90 1.0 0.0 0.00 0.00 0.00 10 999.7
20260506202108 53 135 0.0 0.0 0.00 0.00 0.00 10 999.7
20260506202000 53 90 0.0 0.0 0.00 0.00 0.00 10 999.6
20260506201851 53 270 0.0 0.0 0.00 0.00 0.00 10 999.6
20260506201200 53 90 1.0 0.0 0.00 0.00 0.00 10 999.4
20260506200142 53 90 0.0 0.0 0.00 0.00 0.00 10 999.2
20260506195233 53 90 1.0 0.0 0.00 0.00 0.00 10 998.7
20260506194907 53 90 1.0 0.0 0.00 0.00 0.00 10 998.6
20260506194759 53 90 2.0 0.0 0.00 0.00 0.00 10 998.6
20260506193958 53 135 1.0 0.0 0.00 0.00 0.00 10 998.3
20260506193850 53 135 0.0 0.0 0.00 0.00 0.00 10 998.2
20260506193415 53 180 0.0 0.0 0.00 0.00 0.00 10 998.0
20260506193049 53 135 0.0 0.0 0.00 0.00 0.00 10 997.8
20260506192615 53 90 0.0 0.0 0.00 0.00 0.00 10 998.1
20260506192358 53 45 0.0 0.0 0.00 0.00 0.00 10 998.0
20260506192249 53 45 0.0 0.0 0.00 0.00 0.00 10 998.0
20260506192032 53 135 1.0 0.0 0.00 0.00 0.00 10 997.7
20260506191449 53 90 1.0 0.0 0.01 0.00 0.00 10 996.8
20260506191341 53 90 1.0 0.0 0.01 0.00 0.00 10 996.6
20260506191232 53 90 1.0 0.0 0.01 0.00 0.00 10 996.6
20260506191123 53 135 1.0 0.0 0.01 0.00 0.00 10 996.5
20260506191015 53 90 1.0 0.0 0.01 0.00 0.00 10 996.4
20260506190906 53 90 1.0 0.0 0.01 0.00 0.00 10 996.4
20260506190757 53 90 1.0 0.0 0.01 0.00 0.00 10 996.3
20260506190649 53 90 1.0 0.0 0.01 0.00 0.00 10 996.3
20260506190431 53 45 1.0 0.0 0.01 0.00 0.00 10 996.2
20260506190323 53 90 1.0 0.0 0.01 0.00 0.00 10 996.1
20260506190214 53 135 0.0 0.0 0.01 0.00 0.00 10 996.0
20260506190106 53 135 0.0 0.0 0.01 0.00 0.00 10 995.9
20260506185848 53 180 0.0 0.0 0.01 0.00 0.00 10 995.6
20260506185523 53 135 0.0 0.0 0.01 0.00 0.00 10 995.1
20260506184831 53 90 1.0 0.0 0.01 0.00 0.00 10 995.7
20260506184614 53 90 1.0 0.0 0.01 0.00 0.00 10 996.0
20260506184505 53 90 1.0 0.0 0.01 0.00 0.00 10 996.0
20260506184357 53 90 1.0 0.0 0.01 0.00 0.00 10 996.0
20260506184030 53 90 0.0 0.0 0.01 0.00 0.00 10 996.2
20260506183813 53 45 0.0 0.0 0.01 0.00 0.00 10 996.1
20260506183555 53 90 1.0 0.0 0.01 0.00 0.00 10 996.1
20260506183120 54 135 1.0 0.0 0.01 0.00 0.00 10 995.9
20260506183011 54 90 1.0 0.0 0.01 0.00 0.00 10 995.8
20260506182903 54 90 2.0 0.0 0.01 0.00 0.00 10 995.9
20260506182536 54 90 0.0 0.0 0.01 0.00 0.00 10 995.7
20260506182319 54 45 1.0 0.0 0.01 0.00 0.00 10 995.7
20260506182210 54 90 1.0 0.0 0.01 0.00 0.00 10 995.8
20260506182101 54 90 1.0 0.0 0.01 0.00 0.00 10 995.8
20260506181626 54 45 1.0 0.0 0.01 0.00 0.00 10 995.8
20260506181151 54 135 1.0 0.0 0.00 0.00 0.00 10 995.9
20260506181042 54 135 1.0 0.0 0.00 0.00 0.00 10 996.0
20260506180459 54 180 0.0 0.0 0.02 0.00 0.00 10 996.1
20260506175806 54 45 0.0 0.0 0.02 0.00 0.00 10 996.3
20260506174529 54 225 0.0 0.0 0.02 0.00 0.00 10 996.9
20260506174312 54 225 1.0 0.0 0.02 0.00 0.00 10 997.0
20260506173945 55 270 1.0 0.0 0.01 0.00 0.00 10 997.0
20260506173837 54 315 1.0 0.0 0.01 0.00 0.00 10 996.9
20260506173510 54 0 1.0 0.0 0.01 0.00 0.00 10 996.9
20260506173401 54 0 1.0 0.0 0.01 0.00 0.00 10 996.9
20260506173035 54 45 1.0 0.0 0.01 0.00 0.00 10 996.9
20260506172926 54 0 1.0 0.0 0.01 0.00 0.00 10 996.9
20260506172817 54 0 1.0 0.0 0.01 0.00 0.00 10 997.0
20260506172600 55 0 1.0 0.0 0.01 0.00 0.00 10 997.5
20260506172451 55 315 1.0 0.0 0.01 0.00 0.00 10 997.6
20260506172233 55 315 1.0 0.0 0.01 0.00 0.00 10 997.8
20260506172124 55 315 3.0 0.0 0.01 0.00 0.00 10 997.8
20260506172015 55 315 2.0 0.0 0.01 0.00 0.00 10 997.9
20260506171906 55 270 3.0 0.0 0.01 0.00 0.00 10 998.0
20260506171758 55 45 4.0 0.0 0.01 0.00 0.00 10 998.1
20260506171649 54 45 3.0 0.0 0.00 0.00 0.00 10 998.1
20260506171540 54 315 1.0 0.0 0.00 0.00 0.00 10 998.1
20260506171104 55 225 1.0 0.0 0.00 0.00 0.00 10 997.7
20260506170955 55 225 2.0 0.0 0.00 0.00 0.00 10 997.7
20260506170847 55 180 2.0 0.0 0.00 0.00 0.00 10 997.6
20260506170738 55 180 1.0 0.0 0.00 0.00 0.00 10 997.6
20260506170629 55 180 1.0 0.0 0.00 0.00 0.00 10 997.6
20260506170520 55 180 2.0 0.0 0.00 0.00 0.00 10 997.5
20260506170411 55 180 1.0 0.0 0.00 0.00 0.00 10 997.5
20260506170302 55 180 2.0 0.0 0.00 0.00 0.00 10 997.5
20260506170154 55 180 3.0 0.0 0.00 0.00 0.00 10 997.5
20260506170045 55 180 2.0 0.0 0.00 0.00 0.00 10 997.4
20260506165937 55 180 3.0 0.0 0.01 0.00 0.00 10 997.4
20260506165827 55 180 2.0 0.0 0.00 0.00 0.00 10 997.3
20260506165718 55 180 3.0 0.0 0.00 0.00 0.00 10 997.4
20260506165609 55 135 3.0 0.0 0.00 0.00 0.00 10 997.4
20260506165501 55 180 2.0 0.0 0.00 0.00 0.00 10 997.3
20260506165351 55 180 1.0 0.0 0.00 0.00 0.00 10 997.3
20260506165243 55 180 1.0 0.0 0.00 0.00 0.00 10 997.2
20260506165134 55 180 1.0 0.0 0.00 0.00 0.00 10 997.3
20260506165025 55 180 1.0 0.0 0.00 0.00 0.00 10 997.2
20260506164916 56 180 1.0 0.0 0.00 0.00 0.00 10 997.2
20260506164808 56 180 1.0 0.0 0.00 0.00 0.00 10 997.2
20260506164550 56 270 1.0 0.0 0.00 0.00 0.00 10 997.2
20260506164332 56 180 1.0 0.0 0.00 0.00 0.00 10 997.2
20260506164223 56 180 1.0 0.0 0.00 0.00 0.00 10 997.2
20260506164115 56 135 1.0 0.0 0.00 0.00 0.00 10 997.1
20260506164006 56 90 1.0 0.0 0.00 0.00 0.00 10 997.1
20260506163639 57 180 1.0 0.0 0.00 0.00 0.00 10 997.2
20260506163531 57 135 1.0 0.0 0.00 0.00 0.00 10 997.2
20260506162838 57 135 1.0 0.0 0.00 0.00 0.00 10 997.3
20260506162620 57 90 1.0 0.0 0.00 0.00 0.00 10 997.3
20260506162512 57 90 1.0 0.0 0.00 0.00 0.00 10 997.4
20260506162145 57 135 1.0 0.0 0.00 0.00 0.00 10 997.4
20260506161453 57 90 1.0 0.0 0.00 0.00 0.00 10 997.4
20260506161344 57 90 1.0 0.0 0.00 0.00 0.00 10 997.4
20260506160800 57 90 1.0 0.0 0.00 0.00 0.00 10 997.5
20260506160651 57 90 1.0 0.0 0.00 0.00 0.00 10 997.5
20260506160324 58 90 1.0 0.0 0.00 0.00 0.00 10 997.5
20260506155958 58 135 1.0 0.0 0.00 0.00 0.00 10 997.5
20260506155849 58 135 1.0 0.0 0.00 0.00 0.00 10 997.6
20260506155632 58 0 1.0 0.0 0.00 0.00 0.00 10 997.6
20260506155523 58 90 1.0 0.0 0.00 0.00 0.00 10 997.7
20260506155156 59 90 0.0 0.0 0.00 0.00 0.00 10 997.7
20260506155048 59 90 0.0 0.0 0.00 0.00 0.00 10 997.8
20260506154612 59 45 0.0 0.0 0.01 0.00 0.00 10 998.5
20260506154137 58 135 1.0 0.0 0.01 0.00 0.00 10 999.3
20260506153553 59 180 1.0 0.0 0.00 0.00 0.00 10 1001.3
20260506152901 60 135 1.0 0.0 0.00 0.00 0.00 10 1004.0
20260506152752 60 135 2.0 0.0 0.00 0.00 0.00 10 1004.5
20260506152643 60 45 1.0 0.0 0.00 0.00 0.00 10 1004.8
20260506152317 62 180 1.0 0.0 0.00 0.00 0.00 10 1005.4
20260506152208 62 135 1.0 0.0 0.00 0.00 0.00 10 1005.5
20260506152059 63 180 2.0 0.0 0.00 0.00 0.00 10 1005.7
20260506151950 64 180 1.0 0.0 0.00 0.00 0.00 10 1005.9
20260506151842 64 135 1.0 0.0 0.00 0.00 0.00 10 1005.9
20260506150822 64 180 0.0 0.0 0.00 0.00 0.00 10 1005.6
20260506150020 64 225 0.0 0.0 0.00 0.00 0.00 10 1005.4
20260506145911 63 45 0.0 0.0 0.00 0.00 0.00 10 1005.4
20260506145802 63 45 0.0 0.0 0.00 0.00 0.00 10 1005.4
20260506145653 63 45 0.0 0.0 0.00 0.00 0.00 10 1005.3
20260506145545 62 45 0.0 0.0 0.00 0.00 0.00 10 1005.3
20260506145000 61 45 1.0 0.0 0.00 0.00 0.00 10 1005.8
20260506144851 61 45 2.0 0.0 0.00 0.00 0.00 10 1005.9
20260506144742 61 315 2.0 0.0 0.00 0.00 0.00 10 1006.0
20260506144633 61 0 3.0 0.0 0.00 0.00 0.00 10 1006.1
20260506144525 61 315 2.0 0.0 0.00 0.00 0.00 10 1006.3
20260506144416 61 315 2.0 0.0 0.00 0.00 0.00 10 1006.4
20260506144307 61 315 1.0 0.0 0.00 0.00 0.00 10 1006.5
20260506144158 61 270 1.0 0.0 0.00 0.00 0.00 10 1006.7
20260506143832 61 270 2.0 0.0 0.00 0.00 0.00 10 1007.3
20260506143723 61 315 6.0 0.0 0.00 0.00 0.00 10 1007.6
20260506143614 61 315 1.0 0.0 0.00 0.00 0.00 10 1007.9
20260506143505 62 270 2.0 0.0 0.00 0.00 0.00 10 1008.3
20260506143357 63 270 2.0 0.0 0.00 0.00 0.00 10 1008.6
20260506143248 64 45 1.0 0.0 0.00 0.00 0.00 10 1008.9
20260506143139 64 270 1.0 0.0 0.00 0.00 0.00 10 1009.1
20260506142921 65 315 1.0 0.0 0.00 0.00 0.00 10 1009.4
20260506142813 65 270 1.0 0.0 0.00 0.00 0.00 10 1009.4
20260506142704 65 225 1.0 0.0 0.00 0.00 0.00 10 1009.5
20260506142446 65 315 1.0 0.0 0.00 0.00 0.00 10 1009.7
20260506142120 65 270 1.0 0.0 0.00 0.00 0.00 10 1009.6
20260506142011 65 315 1.0 0.0 0.00 0.00 0.00 10 1009.7
20260506141902 65 270 1.0 0.0 0.00 0.00 0.00 10 1009.6
20260506141427 66 315 1.0 0.0 0.00 0.00 0.00 10 1009.6
20260506141209 66 315 1.0 0.0 0.00 0.00 0.00 10 1009.8
20260506141100 66 45 1.0 0.0 0.00 0.00 0.00 10 1009.9
20260506140952 66 315 2.0 0.0 0.00 0.00 0.00 10 1010.2
20260506140517 68 0 1.0 0.0 0.00 0.00 0.00 10 1010.1
20260506140259 68 270 1.0 0.0 0.00 0.00 0.00 10 1009.7
20260506140150 66 270 1.0 0.0 0.00 0.00 0.00 10 1010.1
20260506135933 67 225 1.0 0.0 0.00 0.00 0.00 10 1010.2
20260506135715 68 225 1.0 0.0 0.00 0.00 0.00 10 1010.3
20260506135606 68 270 1.0 0.0 0.00 0.00 0.00 10 1010.3
20260506135349 67 0 1.0 0.0 0.00 0.00 0.00 10 1010.4
20260506135240 67 315 1.0 0.0 0.00 0.00 0.00 10 1010.5
20260506135023 69 45 1.0 0.0 0.00 0.00 0.00 10 1010.6
20260506134914 68 315 1.0 0.0 0.00 0.00 0.00 10 1010.8
20260506134805 68 0 2.0 0.0 0.00 0.00 0.00 10 1011.1
20260506134547 71 45 1.0 0.0 0.00 0.00 0.00 10 1011.0
20260506134438 72 225 1.0 0.0 0.00 0.00 0.00 10 1011.2
20260506134112 72 270 1.0 0.0 0.00 0.00 0.00 10 1011.1
20260506134003 73 270 0.0 0.0 0.00 0.00 0.00 10 1010.6
20260506133855 70 0 1.0 0.0 0.00 0.00 0.00 10 1010.5
20260506133637 69 90 2.0 0.0 0.00 0.00 0.00 10 1009.9
20260506133528 67 45 2.0 0.0 0.00 0.00 0.00 10 1009.9
20260506133311 65 0 1.0 0.0 0.00 0.00 0.00 10 1010.4
20260506132944 66 0 1.0 0.0 0.00 0.00 0.00 10 1010.4
20260506132509 68 225 2.0 0.0 0.00 0.00 0.00 10 1010.8
20260506132400 69 270 1.0 0.0 0.00 0.00 0.00 10 1010.8
20260506132252 70 45 1.0 0.0 0.00 0.00 0.00 10 1010.8
20260506132143 70 270 1.0 0.0 0.00 0.00 0.00 10 1010.8
20260506132034 72 0 1.0 0.0 0.00 0.00 0.00 10 1010.3
20260506131925 71 315 1.0 0.0 0.00 0.00 0.00 10 1010.1
20260506131816 71 0 1.0 0.0 0.00 0.00 0.00 10 1009.8
20260506131708 71 315 2.0 0.0 0.00 0.00 0.00 10 1009.4
20260506131450 69 315 2.0 0.0 0.00 0.00 0.00 10 1009.1
20260506131341 68 0 1.0 0.0 0.00 0.00 0.00 10 1009.2
20260506131232 68 315 1.0 0.0 0.00 0.00 0.00 10 1009.0
20260506131124 67 0 2.0 0.0 0.00 0.00 0.00 10 1009.1
20260506130906 67 315 1.0 0.0 0.00 0.00 0.00 10 1008.8
20260506130757 66 315 3.0 0.0 0.00 0.00 0.00 10 1009.1
20260506130649 66 0 1.0 0.0 0.00 0.00 0.00 10 1009.1
20260506130213 66 0 1.0 0.0 0.00 0.00 0.00 10 1009.4
20260506125956 66 315 1.0 0.0 0.00 0.00 0.00 10 1009.8
20260506125848 66 315 1.0 0.0 0.00 0.00 0.00 10 1010.0
20260506125738 66 315 1.0 0.0 0.00 0.00 0.00 10 1010.1
20260506125629 66 270 1.0 0.0 0.00 0.00 0.00 10 1010.2
20260506125521 66 315 1.0 0.0 0.00 0.00 0.00 10 1010.3
20260506125412 68 0 1.0 0.0 0.00 0.00 0.00 10 1010.1
20260506124828 66 315 1.0 0.0 0.00 0.00 0.00 10 1009.5
20260506124719 66 315 1.0 0.0 0.00 0.00 0.00 10 1009.7
20260506124611 66 315 1.0 0.0 0.00 0.00 0.00 10 1009.7
20260506124353 66 315 2.0 0.0 0.00 0.00 0.00 10 1010.1
20260506124244 66 315 2.0 0.0 0.00 0.00 0.00 10 1010.4
20260506124136 67 315 1.0 0.0 0.00 0.00 0.00 10 1010.3
20260506124027 68 0 2.0 0.0 0.00 0.00 0.00 10 1010.0
20260506123809 67 315 2.0 0.0 0.00 0.00 0.00 10 1010.2
20260506123700 67 270 2.0 0.0 0.00 0.00 0.00 10 1010.3
20260506123443 66 0 2.0 0.0 0.00 0.00 0.00 10 1010.4
20260506123334 67 270 2.0 0.0 0.00 0.00 0.00 10 1010.4
20260506123225 69 315 1.0 0.0 0.00 0.00 0.00 10 1010.3
20260506123116 70 315 1.0 0.0 0.00 0.00 0.00 10 1010.1
20260506123008 69 315 1.0 0.0 0.00 0.00 0.00 10 1010.4
20260506122859 68 315 3.0 0.0 0.00 0.00 0.00 10 1010.5
20260506122750 68 270 2.0 0.0 0.00 0.00 0.00 10 1010.9
20260506122315 68 225 2.0 0.0 0.00 0.00 0.00 10 1011.2
20260506122206 68 90 1.0 0.0 0.00 0.00 0.00 10 1011.2
20260506121948 67 225 1.0 0.0 0.00 0.00 0.00 10 1011.3
20260506121839 67 180 1.0 0.0 0.00 0.00 0.00 10 1011.2
20260506121513 69 180 1.0 0.0 0.00 0.00 0.00 10 1010.4
20260506121404 69 225 1.0 0.0 0.00 0.00 0.00 10 1010.2
20260506121255 69 180 2.0 0.0 0.00 0.00 0.00 10 1009.9
20260506121147 68 270 2.0 0.0 0.00 0.00 0.00 10 1009.6
20260506121038 69 180 1.0 0.0 0.00 0.00 0.00 10 1008.9
20260506120929 68 225 1.0 0.0 0.00 0.00 0.00 10 1008.9
20260506120820 67 270 1.0 0.0 0.00 0.00 0.00 10 1008.9
20260506120711 66 225 1.0 0.0 0.00 0.00 0.00 10 1008.8
20260506120603 65 270 1.0 0.0 0.00 0.00 0.00 10 1009.0
20260506120454 64 270 2.0 0.0 0.00 0.00 0.00 10 1009.0
20260506120345 64 225 2.0 0.0 0.00 0.00 0.00 10 1009.0
20260506120236 64 270 2.0 0.0 0.00 0.00 0.00 10 1009.1
20260506120127 64 315 1.0 0.0 0.00 0.00 0.00 10 1008.9
20260506120019 64 225 1.0 0.0 0.00 0.00 0.00 10 1009.0
20260506115801 65 270 2.0 0.0 0.00 0.00 0.00 10 1009.3
20260506115652 65 225 2.0 0.0 0.00 0.00 0.00 10 1009.4
20260506115543 65 315 1.0 0.0 0.00 0.00 0.00 10 1009.5
20260506115435 65 225 2.0 0.0 0.00 0.00 0.00 10 1009.6
20260506115326 65 270 4.0 0.0 0.00 0.00 0.00 10 1010.0
20260506115217 66 315 1.0 0.0 0.00 0.00 0.00 10 1009.9
20260506115108 67 180 1.0 0.0 0.00 0.00 0.00 10 1009.7
20260506114633 67 270 2.0 0.0 0.00 0.00 0.00 10 1008.8
20260506114524 67 225 3.0 0.0 0.00 0.00 0.00 10 1008.7
20260506114416 67 225 1.0 0.0 0.00 0.00 0.00 10 1008.5
20260506114158 65 270 2.0 0.0 0.00 0.00 0.00 10 1008.5
20260506114049 65 270 4.0 0.0 0.00 0.00 0.00 10 1008.4
20260506113940 66 270 2.0 0.0 0.00 0.00 0.00 10 1008.0
20260506113832 65 315 2.0 0.0 0.00 0.00 0.00 10 1008.0
20260506113723 65 270 1.0 0.0 0.00 0.00 0.00 10 1007.9
20260506113614 65 225 2.0 0.0 0.00 0.00 0.00 10 1007.6
20260506113505 67 225 1.0 0.0 0.00 0.00 0.00 10 1006.9
20260506113356 67 225 2.0 0.0 0.00 0.00 0.00 10 1006.7
20260506113248 67 315 2.0 0.0 0.00 0.00 0.00 10 1006.8
20260506113139 66 315 1.0 0.0 0.00 0.00 0.00 10 1006.9
20260506113030 65 270 3.0 0.0 0.00 0.00 0.00 10 1007.1
20260506112812 64 270 2.0 0.0 0.00 0.00 0.00 10 1007.6
20260506112704 64 225 1.0 0.0 0.00 0.00 0.00 10 1007.7
20260506112555 64 225 2.0 0.0 0.00 0.00 0.00 10 1008.0
20260506112337 65 225 1.0 0.0 0.00 0.00 0.00 10 1008.1
20260506112228 66 180 3.0 0.0 0.00 0.00 0.00 10 1008.1
20260506112120 66 270 4.0 0.0 0.00 0.00 0.00 10 1008.5
20260506112011 67 225 3.0 0.0 0.00 0.00 0.00 10 1260.8
20260506111902 70 315 1.0 0.0 0.00 0.00 0.00 10 1007.7
20260506111644 70 180 1.0 0.0 0.00 0.00 0.00 10 1006.8
20260506111536 69 180 2.0 0.0 0.00 0.00 0.00 10 1006.4
20260506111318 67 270 1.0 0.0 0.00 0.00 0.00 10 1006.6
20260506111100 68 270 2.0 0.0 0.00 0.00 0.00 10 1006.0
20260506110952 68 270 2.0 0.0 0.00 0.00 0.00 10 1005.7
20260506110517 66 225 2.0 0.0 0.00 0.00 0.00 10 1005.2
20260506110408 65 270 1.0 0.0 0.00 0.00 0.00 10 1005.6
20260506110150 65 270 2.0 0.0 0.00 0.00 0.00 10 1005.4
20260506105933 65 270 2.0 0.0 0.00 0.00 0.00 10 1004.9
20260506105824 65 270 3.0 0.0 0.00 0.00 0.00 10 1004.8
20260506105716 65 225 2.0 0.0 0.00 0.00 0.00 10 1004.6
20260506105606 65 225 1.0 0.0 0.00 0.00 0.00 10 1004.3
20260506105457 65 45 1.0 0.0 0.00 0.00 0.00 10 1004.1
20260506105349 64 45 3.0 0.0 0.00 0.00 0.00 10 1004.2
20260506105240 64 45 2.0 0.0 0.00 0.00 0.00 10 1003.9
20260506105131 64 270 3.0 0.0 0.00 0.00 0.00 10 1003.7
20260506105022 65 270 2.0 0.0 0.00 0.00 0.00 10 1003.2
20260506104914 65 270 1.0 0.0 0.00 0.00 0.00 10 1003.0
20260506104656 66 180 2.0 0.0 0.00 0.00 0.00 10 1002.3
20260506104112 63 180 1.0 0.0 0.00 0.00 0.00 10 1001.0
20260506104004 63 45 2.0 0.0 0.00 0.00 0.00 10 1001.2
20260506103855 62 225 1.0 0.0 0.00 0.00 0.00 10 1001.4
20260506103746 62 270 1.0 0.0 0.00 0.00 0.00 10 1001.5
20260506103637 62 225 1.0 0.0 0.00 0.00 0.00 10 1001.9
20260506103311 62 270 1.0 0.0 0.00 0.00 0.00 10 1002.4
20260506103202 62 270 1.0 0.0 0.00 0.00 0.00 10 1002.5
20260506102944 64 315 1.0 0.0 0.00 0.00 0.00 10 1002.0
20260506102618 65 180 1.0 0.0 0.00 0.00 0.00 10 1001.0
20260506102509 65 180 1.0 0.0 0.00 0.00 0.00 10 1000.9
20260506102400 65 180 1.0 0.0 0.00 0.00 0.00 10 1000.6
20260506102252 65 225 1.0 0.0 0.00 0.00 0.00 10 1000.3
20260506102035 66 225 1.0 0.0 0.00 0.00 0.00 10 999.0
20260506101817 63 270 1.0 0.0 0.00 0.00 0.00 10 999.6
20260506101559 61 270 1.0 0.0 0.00 0.00 0.00 10 1000.6
20260506100906 62 225 1.0 0.0 0.00 0.00 0.00 10 1001.2
20260506100540 62 180 1.0 0.0 0.00 0.00 0.00 10 1001.5